{"data":{"norad_id":57622,"epoch":"2026-05-24T21:51:07.713216Z","epoch_age_seconds":86242,"freshness":"FRESH","line1":"1 57622U 23119W   26144.91050594 -.00000820  00000+0 -20255-4 0  9997","line2":"2 57622  43.0014  11.0768 0001478 274.3964  85.6719 15.27581608154744","mean_motion":15.27581608,"eccentricity":0.0001478,"inclination_deg":43.0014,"raan_deg":11.0768,"arg_perigee_deg":274.3964,"mean_anomaly_deg":85.6719,"bstar":-2.0255e-5,"rev_number":15474,"period_min":94.2666494843,"perigee_km":482.03019852005,"apogee_km":484.05836370675,"semimajor_km":6861.1812811134,"source":"CELESTRAK","updated_at":"2026-05-25T13:38:18.361037Z"}}